When you browse on this site, cookies collect data to enhance your experience and personalize the content and advertising you see.
Visit our Privacy Policy to learn more. By continuing to use the site, you agree to this use of cookies and data.
  • In Portugal
  • List of Countries
  • For 7 days
  • Water Temperature
  • Satellite Maps
  • Weather Map
  • Weather Widgets
  • user-avatar
    Login

    Hourly Weather Podwojponie

    Today, 18 January, Friday

    Time Temperature Precipitation Wind Pressure Humidity
    00:00 -2°C° 0 mm 5 mps 731 mmHg 89%
    01:00 -2°C° 0 mm 5 mps 731 mmHg 90%
    02:00 -4°C° 0 mm 5 mps 730 mmHg 91%
    03:00 -3°C° 0 mm 4 mps 730 mmHg 92%
    04:00 -2°C° 0 mm 4 mps 730 mmHg 93%
    05:00 -2°C° 0 mm 4 mps 730 mmHg 94%
    06:00 -2°C° 0.6 mm 4 mps 730 mmHg 95%
    07:00 -2°C° 0.6 mm 4 mps 730 mmHg 95%
    08:00 -1°C° 0 mm 5 mps 730 mmHg 96%
    09:00 -2°C° 1.2 mm 5 mps 731 mmHg 93%
    10:00 -5°C° 1.2 mm 6 mps 732 mmHg 91%
    11:00 -6°C° 1.2 mm 6 mps 733 mmHg 89%
    12:00 -6°C° 0 mm 6 mps 734 mmHg 88%
    13:00 -5°C° 0 mm 5 mps 735 mmHg 87%
    14:00 -4°C° 0 mm 4 mps 736 mmHg 86%
    15:00 -5°C° 0 mm 4 mps 737 mmHg 86%
    16:00 -5°C° 0 mm 4 mps 738 mmHg 87%
    17:00 -6°C° 0 mm 3 mps 739 mmHg 87%
    18:00 -7°C° 0 mm 4 mps 739 mmHg 88%
    19:00 -7°C° 0 mm 4 mps 739 mmHg 88%
    20:00 -7°C° 0 mm 4 mps 740 mmHg 89%
    21:00 -7°C° 0 mm 5 mps 740 mmHg 88%
    22:00 -8°C° 0 mm 5 mps 740 mmHg 88%
    23:00 -8°C° 0 mm 5 mps 741 mmHg 87%

    Tomorrow, 19 January, Saturday

    Time Temperature Precipitation Wind Pressure Humidity
    00:00 -8°C° 0 mm 5 mps 741 mmHg 86%
    01:00 -8°C° 0 mm 5 mps 742 mmHg 86%
    02:00 -8°C° 0 mm 5 mps 742 mmHg 85%
    03:00 -7°C° 0 mm 5 mps 742 mmHg 86%
    04:00 -8°C° 0 mm 6 mps 742 mmHg 87%
    05:00 -6°C° 0 mm 6 mps 743 mmHg 88%
    06:00 -8°C° 0 mm 6 mps 743 mmHg 89%
    07:00 -7°C° 0 mm 5 mps 743 mmHg 90%
    08:00 -7°C° 0 mm 5 mps 743 mmHg 91%
    09:00 -7°C° 0 mm 5 mps 744 mmHg 91%
    10:00 -7°C° 0 mm 5 mps 744 mmHg 91%
    11:00 -6°C° 0 mm 5 mps 744 mmHg 91%
    12:00 -5°C° 0 mm 4 mps 745 mmHg 91%
    13:00 -4°C° 0 mm 4 mps 745 mmHg 91%
    14:00 -4°C° 0 mm 4 mps 745 mmHg 91%
    15:00 -4°C° 0 mm 4 mps 745 mmHg 91%
    16:00 -4°C° 0 mm 4 mps 745 mmHg 91%
    17:00 -4°C° 0 mm 4 mps 745 mmHg 91%
    18:00 -4°C° 0 mm 4 mps 745 mmHg 92%
    19:00 -4°C° 0 mm 4 mps 745 mmHg 92%
    20:00 -5°C° 0 mm 4 mps 745 mmHg 92%
    21:00 -5°C° 0 mm 4 mps 745 mmHg 92%
    22:00 -7°C° 0 mm 4 mps 745 mmHg 92%
    23:00 -7°C° 0 mm 4 mps 745 mmHg 93%

    Day after tomorrow, 20 January, Sunday

    Time Temperature Precipitation Wind Pressure Humidity
    00:00 -7°C° 0 mm 4 mps 744 mmHg 92%
    01:00 -7°C° 0 mm 4 mps 744 mmHg 92%
    02:00 -8°C° 0 mm 4 mps 744 mmHg 92%
    03:00 -8°C° 0 mm 4 mps 744 mmHg 93%
    04:00 -8°C° 0 mm 4 mps 744 mmHg 93%
    05:00 -8°C° 0 mm 4 mps 744 mmHg 94%
    06:00 -8°C° 0 mm 4 mps 744 mmHg 94%
    07:00 -8°C° 0 mm 4 mps 743 mmHg 94%
    08:00 -8°C° 0 mm 5 mps 743 mmHg 93%
    09:00 -8°C° 0 mm 5 mps 743 mmHg 93%
    10:00 -7°C° 0 mm 5 mps 743 mmHg 92%
    11:00 -6°C° 0 mm 5 mps 743 mmHg 91%
    12:00 -6°C° 0.1 mm 5 mps 743 mmHg 91%
    13:00 -5°C° 0.1 mm 5 mps 743 mmHg 91%
    14:00 -4°C° 0.1 mm 5 mps 743 mmHg 91%
    15:00 -5°C° 0.5 mm 5 mps 743 mmHg 92%
    16:00 -4°C° 0.5 mm 4 mps 743 mmHg 94%
    17:00 -4°C° 0.5 mm 3 mps 743 mmHg 95%
    18:00 -5°C° 0.2 mm 3 mps 743 mmHg 94%
    19:00 -4°C° 0.2 mm 2 mps 743 mmHg 93%
    20:00 -3°C° 0.2 mm 1 mps 744 mmHg 91%
    21:00 -6°C° 0 mm 2 mps 744 mmHg 91%
    22:00 -7°C° 0 mm 2 mps 744 mmHg 91%
    23:00 -9°C° 0 mm 3 mps 744 mmHg 91%

    21 January, Monday

    Time Temperature Precipitation Wind Pressure Humidity
    00:00 -9°C° 0 mm 3 mps 745 mmHg 89%
    01:00 -10°C° 0 mm 3 mps 745 mmHg 88%
    02:00 -10°C° 0 mm 3 mps 745 mmHg 86%
    03:00 -10°C° 0 mm 3 mps 745 mmHg 86%
    04:00 -10°C° 0 mm 3 mps 746 mmHg 86%
    05:00 -10°C° 0 mm 3 mps 746 mmHg 85%
    06:00 -10°C° 0 mm 3 mps 746 mmHg 85%
    07:00 -10°C° 0 mm 3 mps 746 mmHg 84%
    08:00 -10°C° 0 mm 3 mps 747 mmHg 84%
    09:00 -10°C° 0 mm 3 mps 747 mmHg 84%
    10:00 -8°C° 0 mm 2 mps 747 mmHg 84%
    11:00 -7°C° 0 mm 2 mps 748 mmHg 84%
    12:00 -6°C° 0 mm 2 mps 747 mmHg 84%
    13:00 -5°C° 0 mm 2 mps 747 mmHg 84%
    14:00 -6°C° 0 mm 3 mps 747 mmHg 84%
    15:00 -6°C° 0 mm 3 mps 747 mmHg 84%
    16:00 -7°C° 0 mm 3 mps 747 mmHg 85%
    17:00 -8°C° 0 mm 3 mps 747 mmHg 86%
    18:00 -8°C° 0 mm 3 mps 747 mmHg 86%
    19:00 -8°C° 0 mm 3 mps 747 mmHg 87%
    20:00 -9°C° 0 mm 3 mps 746 mmHg 87%
    21:00 -9°C° 0.1 mm 4 mps 746 mmHg 89%
    22:00 -8°C° 0.1 mm 4 mps 746 mmHg 91%
    23:00 -7°C° 0.1 mm 4 mps 746 mmHg 93%

    22 January, Tuesday

    Time Temperature Precipitation Wind Pressure Humidity
    00:00 -7°C° 0.1 mm 4 mps 745 mmHg 93%
    01:00 -7°C° 0.1 mm 4 mps 745 mmHg 93%
    02:00 -5°C° 0.1 mm 4 mps 744 mmHg 93%
    03:00 -5°C° 0.1 mm 4 mps 744 mmHg 93%
    04:00 -7°C° 0.1 mm 4 mps 743 mmHg 93%
    05:00 -7°C° 0.1 mm 4 mps 743 mmHg 93%
    06:00 -7°C° 0.2 mm 4 mps 742 mmHg 93%
    07:00 -7°C° 0.2 mm 4 mps 742 mmHg 93%
    08:00 -5°C° 0.2 mm 4 mps 742 mmHg 93%
    09:00 -5°C° 0 mm 4 mps 742 mmHg 93%
    10:00 -5°C° 0 mm 4 mps 742 mmHg 93%
    11:00 -5°C° 0 mm 4 mps 742 mmHg 93%
    12:00 -5°C° 0 mm 4 mps 741 mmHg 92%
    13:00 -5°C° 0 mm 4 mps 741 mmHg 91%
    14:00 -5°C° 0 mm 4 mps 741 mmHg 90%
    15:00 -5°C° 0 mm 4 mps 740 mmHg 90%
    16:00 -5°C° 0 mm 4 mps 740 mmHg 90%
    17:00 -7°C° 0 mm 4 mps 739 mmHg 89%
    18:00 -7°C° 0 mm 4 mps 739 mmHg 90%
    19:00 -8°C° 0 mm 4 mps 739 mmHg 90%
    20:00 -8°C° 0 mm 4 mps 738 mmHg 91%
    21:00 -9°C° 0 mm 4 mps 738 mmHg 90%
    22:00 -9°C° 0 mm 4 mps 738 mmHg 89%
    23:00 -9°C° 0 mm 4 mps 737 mmHg 88%

    23 January, Wednesday

    Time Temperature Precipitation Wind Pressure Humidity
    00:00 -10°C° 0 mm 5 mps 737 mmHg 89%
    01:00 -10°C° 0 mm 5 mps 737 mmHg 89%
    02:00 -11°C° 0 mm 5 mps 736 mmHg 89%
    03:00 -11°C° 0 mm 5 mps 736 mmHg 90%
    04:00 -11°C° 0 mm 5 mps 736 mmHg 91%
    05:00 -11°C° 0 mm 5 mps 735 mmHg 91%
    06:00 -11°C° 0 mm 5 mps 735 mmHg 92%
    07:00 -11°C° 0 mm 5 mps 735 mmHg 92%
    08:00 -12°C° 0 mm 5 mps 734 mmHg 92%
    09:00 -11°C° 0 mm 5 mps 734 mmHg 91%
    10:00 -11°C° 0 mm 6 mps 734 mmHg 90%
    11:00 -10°C° 0 mm 6 mps 734 mmHg 89%
    12:00 -10°C° 0 mm 6 mps 734 mmHg 89%
    13:00 -10°C° 0 mm 6 mps 734 mmHg 90%
    14:00 -10°C° 0 mm 6 mps 734 mmHg 90%
    15:00 -10°C° 0 mm 6 mps 733 mmHg 90%
    16:00 -10°C° 0 mm 6 mps 733 mmHg 90%
    17:00 -10°C° 0 mm 6 mps 733 mmHg 90%
    18:00 -9°C° 0 mm 6 mps 733 mmHg 90%
    19:00 -7°C° 0 mm 5 mps 733 mmHg 90%
    20:00 -6°C° 0 mm 5 mps 733 mmHg 90%
    21:00 -6°C° 0 mm 6 mps 733 mmHg 90%
    22:00 -6°C° 0 mm 6 mps 733 mmHg 90%
    23:00 -8°C° 0 mm 6 mps 733 mmHg 91%
    Show more